Location: Niagara
(43.2500°N, 79.0670°W)
Time: 03:11:11
(UTC-05:00)

Vanguard 2 Rocket - Visible Passes

Search period start: 19 February 2018 00:00
Search period end: 01 March 2018 00:00
Orbit: 555 x 3327 km, 32.9° (Epoch: 18 February)

Date Brightness Start Highest point End Pass type
(mag) Time Alt. Az. Time Alt. Az. Time Alt. Az.
19 Feb 10.3 01:18:56 32° ESE 01:18:56 32° ESE 01:27:32 10° E visible
19 Feb 9.5 03:24:43 56° SSW 03:25:14 56° SSW 03:43:48 10° ESE visible
19 Feb 10.0 05:30:31 21° W 05:41:36 35° SW 05:56:20 10° SSE visible
20 Feb 10.8 00:22:45 16° E 00:22:45 16° E 00:25:35 10° E visible
20 Feb 9.7 02:28:33 51° SE 02:28:33 51° SE 02:42:59 10° ESE visible
20 Feb 9.8 04:34:21 36° WSW 04:40:29 43° SSW 04:57:12 10° SE visible
20 Feb 9.9 20:45:06 10° S 20:45:27 11° S 20:45:27 11° S visible
20 Feb10.623:26:38E23:26:38E22:51:18SWvisible
21 Feb 10.2 01:32:27 33° ESE 01:32:27 33° ESE 01:41:36 10° ESE visible
21 Feb 9.6 03:38:15 50° SSW 03:39:03 50° SSW 03:57:18 10° SE visible
21 Feb 10.2 05:44:04 17° W 05:54:50 27° SW 06:08:24 10° S visible
21 Feb 10.1 21:55:34 10° SSW 21:55:34 10° SSW 21:55:34 10° SSW visible
22 Feb 10.7 00:36:24 17° ESE 00:36:24 17° ESE 00:39:43 10° E visible
22 Feb 9.8 02:42:13 48° SSE 02:42:13 48° SSE 02:56:42 10° SE visible
22 Feb 9.9 04:48:02 30° WSW 04:53:58 35° SW 05:09:51 10° SSE visible
22 Feb 9.5 20:57:40 10° SSW 20:59:49 17° S 20:59:49 17° S visible
22 Feb10.623:40:25E23:40:25E23:05:40WSWvisible
23 Feb 10.2 01:46:15 33° SE 01:46:15 33° SE 01:55:28 10° ESE visible
23 Feb 9.7 03:52:04 42° SSW 03:52:44 42° SSW 04:10:21 10° SE visible
23 Feb 10.4 05:57:53 12° WSW 06:08:00 19° SW 06:19:09 10° S visible
23 Feb 9.4 20:00:45 10° S 20:04:04 17° SSE 20:04:04 17° SSE visible
23 Feb 9.9 22:09:13 10° SW 22:09:55 13° SW 22:09:55 13° SW visible
24 Feb 10.7 00:50:20 17° ESE 00:50:20 17° ESE 00:53:42 10° ESE visible
24 Feb 9.8 02:56:10 43° S 02:56:10 43° S 03:10:04 10° SE visible
24 Feb 10.1 05:02:00 24° WSW 05:07:20 27° SW 05:21:40 10° S visible
24 Feb 9.3 21:10:57 10° SSW 21:14:09 23° SSW 21:14:09 23° SSW visible
24 Feb10.623:54:29E23:54:29E23:19:58WSWvisible
25 Feb 10.2 02:00:20 31° SE 02:00:20 31° SE 02:09:05 10° SE visible
25 Feb 9.9 04:06:10 34° SW 04:06:20 34° SSW 04:22:47 10° SSE visible
25 Feb 10.6 06:16:04 10° WSW 06:21:10 11° SW 06:26:12 10° SW visible
25 Feb 9.0 20:13:17 10° SSW 20:18:21 24° SSE 20:18:21 24° SSE visible
25 Feb 9.9 22:23:11 10° SW 22:24:11 14° SW 22:24:11 14° SW visible
26 Feb 10.7 01:04:32 16° ESE 01:04:32 16° ESE 01:07:30 10° ESE visible
26 Feb 10.0 03:10:23 36° S 03:10:23 36° S 03:22:57 10° SE visible
26 Feb 10.4 05:16:13 17° WSW 05:20:40 18° SW 05:32:02 10° S visible
26 Feb 9.3 19:16:46 10° SSE 19:20:50 15° SE 19:22:31 14° ESE visible
26 Feb 9.1 21:24:40 10° SW 21:28:21 28° SSW 21:28:21 28° SSW visible
27 Feb10.600:08:48ESE00:08:48ESE23:34:11WSWvisible
27 Feb 10.3 02:14:39 27° SSE 02:14:39 27° SSE 02:22:18 10° SE visible
27 Feb 10.2 04:20:29 25° SW 04:20:29 25° SW 04:34:18 10° S visible
27 Feb 8.7 20:26:35 10° SSW 20:32:28 31° SSE 20:32:28 31° SSE visible
27 Feb 9.9 22:37:21 10° WSW 22:38:18 14° WSW 22:38:18 14° WSW visible
28 Feb 10.8 01:18:56 14° SE 01:18:56 14° SE 01:21:01 10° SE visible
28 Feb 10.2 03:24:47 28° S 03:24:47 28° S 03:35:08 10° SSE visible
28 Feb 10.6 05:30:38 10° WSW 05:34:02 11° SW 05:37:49 10° SW visible
28 Feb 8.9 19:29:08 10° S 19:34:17 21° SE 19:36:34 19° ESE visible
28 Feb 9.0 21:38:41 10° SW 21:42:24 30° SW 21:42:24 30° SW visible
